Wind_Speed
24 25 26 27 28 29 30 31 33 34 35 36 37 38 39 40 40 41 41 42 43 45 46 48 49 51 52 52 53 54 55 55 56 56 57 58 59 60 61 62 63 64 65
29 29 30 31 32 33 34 36 37 38 39 40 41 42 44 45 45 45 45 45 45 46 47 49 50 51 52 53 54 55 56 57 58 59 60 61 61 62 64 65 66 66 67
33 34 34 36 37 37 39 40 41 42 43 44 45 46 47 49 50 50 50 49 49 49 50 50 51 52 53 54 55 56 57 58 59 60 62 63 64 65 66 67 68 69 70
37 38 39 40 41 42 43 44 45 46 47 48 49 50 51 53 54 54 54 53 52 52 52 53 53 54 55 55 56 57 58 59 60 62 63 64 65 66 68 69 70 71 73
42 43 43 44 45 46 47 48 49 50 51 52 53 53 55 56 57 57 57 57 56 55 55 55 55 56 56 57 58 59 60 61 62 64 65 66 67 68 70 71 72 73 75
46 47 47 48 49 50 51 52 54 54 55 56 57 57 58 59 60 60 60 59 58 58 58 57 57 58 58 59 60 60 61 62 64 65 67 68 69 70 71 72 73 75 76
50 51 52 52 53 54 54 56 58 59 60 61 61 62 62 62 62 62 61 60 60 60 60 60 60 60 60 60 61 62 63 64 65 67 68 69 70 71 72 73 74 75 77
53 54 55 56 57 58 58 59 61 63 63 64 65 66 65 64 63 62 60 60 60 61 61 61 61 61 62 62 63 63 64 65 66 67 68 69 70 71 72 73 74 75 76
55 57 58 59 60 61 62 63 64 66 67 67 67 67 67 66 65 61 59 59 59 60 60 61 61 62 63 64 64 64 66 67 67 68 68 68 69 70 72 73 74 76 77
57 59 60 61 63 64 65 66 68 69 69 69 68 67 67 66 64 62 60 59 59 60 60 61 62 63 64 65 65 66 67 67 68 68 68 69 70 71 72 73 75 77 79
59 60 62 63 65 66 67 68 70 70 70 69 68 67 66 64 63 62 61 60 61 61 61 62 63 64 65 66 66 67 67 68 68 69 69 69 70 71 73 75 77 79 81
60 61 63 65 66 68 69 70 71 71 70 69 68 67 65 64 63 63 62 62 63 63 63 64 65 66 67 67 67 67 68 68 68 69 70 70 72 73 74 76 78 80 82
61 62 64 66 67 69 70 71 71 70 70 69 67 66 65 64 65 64 64 64 65 64 65 65 67 68 69 68 68 68 68 69 69 70 71 72 74 75 76 78 79 81 83
62 63 65 66 68 69 70 70 70 69 69 68 67 66 67 66 66 66 67 67 67 67 67 67 68 70 70 69 69 69 69 70 70 71 72 74 75 76 77 79 80 81 83
63 64 65 66 67 67 68 69 68 68 68 68 68 68 68 68 68 68 69 69 70 69 68 67 69 69 70 69 69 69 70 70 71 72 73 74 76 77 78 79 80 80 81
63 64 65 65 65 66 67 68 68 68 68 68 67 68 68 68 68 69 70 70 70 70 68 66 67 68 69 69 69 69 70 70 71 72 74 75 76 77 77 78 79 79 79
62 62 63 64 64 65 66 66 66 67 67 66 67 68 68 68 68 69 69 69 69 69 68 66 67 68 68 69 69 69 70 71 72 73 74 75 76 76 77 77 76 76 75
60 61 61 62 63 64 64 65 65 66 67 67 67 68 67 68 67 68 68 67 67 68 68 66 66 67 67 68 68 69 70 71 71 72 73 73 73 74 74 73 73 71 70
59 60 61 61 62 63 64 65 65 66 66 66 66 66 66 66 66 67 67 66 66 67 67 66 65 66 67 68 69 69 70 70 71 71 71 71 71 70 70 69 69 68 67
58 59 60 60 62 63 63 63 64 65 66 65 65 64 64 65 66 66 66 66 66 67 67 67 65 65 66 67 69 69 69 69 68 68 68 68 67 67 66 66 65 64 63
58 59 60 61 62 63 63 63 64 65 64 64 63 63 64 65 65 65 65 66 66 67 66 66 65 66 65 67 68 69 69 67 66 65 66 65 65 63 62 62 61 60 60
59 59 59 60 61 61 62 63 64 64 63 62 62 64 64 64 64 64 65 66 66 66 65 65 65 65 64 66 67 67 67 66 64 61 64 61 61 60 59 58 57 57 56
59 59 59 60 59 59 60 61 62 62 62 62 62 64 64 63 64 65 65 65 64 64 64 64 64 63 63 64 65 65 64 63 61 59 61 59 58 58 56 55 55 55 54
58 59 59 59 58 58 59 61 62 62 62 61 62 62 62 62 62 62 62 62 61 61 61 62 61 61 62 62 63 62 61 60 58 55 58 58 55 54 53 52 53 53 52
57 58 58 58 58 58 60 61 62 62 61 60 60 60 60 59 59 59 59 58 58 57 58 59 59 59 59 59 59 59 58 58 55 51 54 57 54 52 50 49 50 51 49
57 57 56 57 58 58 59 60 61 61 60 60 59 58 57 57 57 57 56 55 54 55 56 56 56 56 56 56 56 56 56 56 53 50 50 53 52 52 48 45 47 47 47
Wind_Direction
290 292 294 296 297 298 299 299 300 300 301 302 303 304 304 303 302 299 296 291 287 283 280 277 275 274 273 273 272 271 271 270 269 268 267 266 265 264 263 262 261 261 261
287 289 291 293 294 295 296 297 297 298 299 300 301 302 303 303 303 301 298 295 291 287 283 280 277 275 274 273 272 272 271 270 270 269 268 266 265 264 262 261 260 260 259
284 286 288 290 292 293 294 295 296 296 297 298 299 301 302 302 302 301 298 296 293 289 286 283 280 278 276 275 274 273 273 272 272 271 270 269 268 266 264 263 261 260 259
282 285 286 288 290 292 293 293 294 295 296 297 298 299 300 301 301 300 299 296 294 291 288 285 282 280 279 278 277 276 275 275 274 273 273 272 270 269 267 266 264 262 260
282 283 285 287 289 291 292 293 294 294 295 295 296 297 298 299 300 300 299 296 294 291 289 286 284 282 281 280 279 278 278 277 276 276 275 274 273 272 270 268 266 264 262
281 283 285 287 289 290 291 292 293 294 295 295 295 296 297 297 298 298 297 296 293 291 289 287 285 284 283 282 281 280 280 279 279 278 278 277 275 274 272 270 268 267 264
280 283 285 287 288 290 291 292 293 294 294 295 295 295 296 296 297 297 296 295 293 292 290 289 287 286 285 284 283 282 282 281 281 280 279 278 277 275 274 272 270 268 266
280 283 285 287 288 289 290 291 292 293 294 294 295 295 295 295 295 295 294 294 293 291 290 289 287 286 286 286 285 284 284 283 283 282 281 280 278 277 276 274 272 270 268
281 282 284 286 288 289 290 291 292 293 293 294 294 295 295 294 293 292 292 291 290 290 289 289 288 287 287 287 286 286 286 285 285 284 282 281 280 279 278 276 274 272 271
281 282 284 286 287 288 289 290 291 292 293 294 294 294 294 294 294 293 291 291 290 290 289 289 289 289 289 288 288 287 287 287 286 285 283 282 282 280 279 278 276 275 274
281 283 284 285 286 287 289 290 291 292 293 294 294 294 294 294 294 294 292 292 291 290 290 290 290 290 290 289 289 288 288 288 287 286 284 284 283 282 281 280 279 278 276
282 283 284 284 286 287 288 289 290 292 293 293 294 294 295 294 294 294 293 293 292 292 292 292 292 291 291 290 290 289 289 289 288 287 286 285 285 284 283 283 282 280 279
282 283 283 284 285 286 287 288 290 291 292 293 294 294 294 294 294 294 294 294 293 292 293 293 293 293 292 292 291 290 290 289 288 287 287 287 286 286 285 285 284 283 281
283 283 284 285 286 286 287 288 289 291 292 293 293 294 294 294 294 294 294 294 293 293 293 293 294 294 293 292 291 290 290 290 289 289 288 288 288 288 288 287 286 285 284
285 285 285 285 286 287 288 289 290 291 291 292 293 293 294 294 294 293 294 294 294 293 293 293 293 293 293 292 292 291 291 291 291 291 291 291 290 290 289 289 288 287 286
286 286 287 287 287 287 288 289 290 290 291 292 292 292 293 293 293 294 294 293 293 293 293 292 293 293 293 293 293 292 292 292 293 293 293 293 292 292 291 291 290 289 287
286 286 287 288 288 289 289 289 290 290 290 291 292 292 292 292 293 293 293 293 293 293 292 292 293 293 293 293 294 294 294 294 294 295 295 295 294 293 293 293 292 290 288
287 288 288 289 290 290 290 291 291 290 291 291 291 291 292 292 293 293 293 293 293 293 293 293 293 293 293 293 294 294 295 295 296 296 296 295 295 294 294 294 292 290 288
289 289 289 290 291 291 291 291 291 290 291 292 291 291 292 292 292 293 293 293 292 292 293 293 293 293 293 293 294 295 295 296 297 297 297 296 296 296 295 295 293 291 289
291 290 291 291 291 291 291 291 291 292 292 292 292 292 292 292 292 293 293 293 292 292 292 293 293 293 293 294 294 295 296 297 298 298 297 297 297 297 297 295 294 292 290
292 291 291 291 291 291 291 291 291 292 293 293 292 292 292 292 293 293 292 292 292 292 292 293 293 293 294 294 295 296 297 298 299 299 298 299 298 298 297 296 294 292 290
293 293 292 292 292 292 292 292 292 293 293 293 293 293 292 292 292 292 293 292 292 292 293 293 293 294 294 295 295 297 298 299 300 299 299 300 300 300 299 297 295 293 291
293 294 294 293 293 293 294 294 294 294 294 293 293 293 293 292 292 292 292 292 292 292 293 293 294 295 295 295 296 298 299 300 302 302 300 302 302 302 301 299 297 295 293
295 295 294 294 294 294 294 294 295 295 295 294 294 294 294 293 292 292 292 292 292 293 293 294 295 295 295 296 297 298 300 301 303 302 301 303 304 303 303 301 299 296 294
297 296 295 294 294 294 295 295 296 296 296 296 295 295 295 294 293 293 293 293 294 294 293 295 296 295 296 297 298 299 300 302 303 304 303 304 306 305 305 304 300 298 296
297 297 296 296 296 296 296 296 297 297 297 297 297 297 296 294 294 293 293 293 293 293 293 294 295 295 296 298 299 300 301 302 304 305 304 305 307 307 307 306 302 299 298
Height
5829 5828 5826 5825 5823 5822 5820 5819 5817 5815 5812 5810 5808 5805 5803 5800 5797 5795 5792 5789 5786 5784 5782 5780 5779 5777 5776 5775 5774 5774 5773 5773 5773 5773 5773 5774 5775 5776 5777 5779 5781 5783 5785
5822 5821 5820 5818 5817 5815 5813 5811 5809 5806 5804 5801 5799 5796 5793 5790 5787 5785 5782 5778 5775 5773 5770 5768 5766 5765 5763 5762 5761 5760 5759 5759 5758 5758 5758 5759 5759 5760 5762 5763 5765 5767 5769
5815 5814 5812 5811 5809 5807 5805 5802 5800 5797 5795 5792 5789 5786 5783 5779 5776 5773 5770 5766 5763 5760 5757 5755 5753 5751 5749 5747 5746 5745 5744 5743 5742 5742 5742 5742 5742 5743 5744 5745 5747 5749 5752
5807 5806 5804 5802 5799 5797 5795 5792 5790 5787 5784 5781 5778 5775 5771 5768 5764 5760 5756 5753 5750 5747 5743 5741 5738 5736 5734 5732 5730 5729 5727 5726 5725 5724 5724 5724 5723 5724 5725 5726 5727 5729 5732
5798 5796 5794 5792 5790 5787 5784 5781 5778 5775 5772 5769 5766 5763 5759 5755 5751 5747 5743 5739 5735 5732 5729 5726 5723 5721 5718 5716 5714 5712 5710 5708 5707 5706 5704 5704 5703 5703 5704 5705 5706 5708 5710
5787 5785 5784 5782 5779 5776 5773 5769 5766 5763 5759 5756 5753 5750 5746 5742 5737 5733 5728 5724 5719 5716 5712 5709 5707 5704 5701 5699 5696 5694 5692 5690 5688 5686 5684 5683 5682 5682 5682 5682 5683 5685 5687
5777 5774 5772 5770 5767 5764 5761 5757 5753 5749 5745 5741 5738 5735 5732 5727 5723 5718 5713 5708 5704 5699 5696 5692 5689 5686 5683 5681 5678 5675 5673 5670 5668 5666 5664 5662 5660 5659 5659 5659 5660 5661 5663
5766 5763 5760 5758 5754 5751 5748 5744 5739 5735 5731 5727 5722 5718 5715 5713 5708 5704 5699 5694 5688 5684 5680 5675 5672 5669 5666 5663 5659 5656 5653 5650 5648 5645 5642 5640 5638 5637 5635 5635 5635 5636 5638
5755 5752 5748 5744 5741 5737 5734 5729 5725 5720 5716 5712 5707 5702 5697 5694 5690 5689 5685 5680 5674 5669 5664 5660 5655 5651 5647 5644 5641 5637 5634 5630 5627 5624 5621 5618 5616 5614 5612 5611 5611 5611 5611
5742 5739 5735 5731 5727 5723 5719 5714 5709 5705 5700 5695 5691 5687 5681 5676 5672 5668 5666 5662 5657 5653 5648 5643 5639 5634 5630 5626 5622 5618 5614 5611 5607 5604 5600 5597 5594 5592 5589 5587 5586 5585 5585
5728 5725 5721 5716 5712 5707 5703 5698 5693 5688 5684 5679 5674 5670 5665 5660 5655 5650 5647 5644 5639 5635 5630 5626 5621 5616 5612 5608 5604 5599 5595 5591 5587 5583 5579 5576 5572 5569 5566 5563 5561 5558 5557
5715 5711 5705 5701 5696 5691 5687 5682 5676 5672 5667 5663 5657 5653 5648 5644 5640 5634 5630 5626 5621 5617 5612 5608 5603 5597 5593 5589 5584 5580 5575 5571 5566 5562 5558 5554 5550 5546 5542 5538 5534 5531 5527
5699 5695 5690 5685 5680 5675 5670 5665 5660 5655 5650 5646 5641 5636 5631 5628 5623 5618 5612 5608 5604 5600 5595 5591 5584 5578 5573 5569 5564 5560 5556 5550 5546 5541 5536 5532 5527 5522 5517 5512 5507 5502 5498
5683 5678 5674 5669 5665 5659 5654 5648 5643 5638 5633 5628 5624 5619 5614 5610 5605 5600 5595 5589 5585 5581 5577 5573 5566 5559 5553 5549 5544 5539 5535 5529 5524 5519 5513 5508 5502 5497 5491 5485 5479 5473 5467
5666 5661 5657 5653 5648 5643 5637 5631 5626 5622 5616 5611 5607 5602 5597 5592 5586 5581 5576 5571 5566 5562 5559 5555 5547 5540 5533 5528 5523 5518 5513 5507 5502 5496 5490 5483 5477 5471 5464 5457 5450 5444 5437
5650 5645 5640 5636 5631 5627 5621 5615 5610 5605 5599 5594 5589 5584 5579 5574 5568 5563 5558 5553 5547 5542 5539 5536 5528 5521 5514 5508 5502 5497 5492 5486 5479 5472 5466 5458 5451 5444 5436 5429 5421 5414 5407
5634 5629 5624 5619 5615 5610 5604 5598 5593 5587 5582 5577 5572 5567 5562 5556 5551 5545 5539 5534 5528 5523 5519 5517 5510 5502 5495 5488 5482 5476 5470 5464 5457 5449 5442 5434 5425 5417 5409 5401 5393 5385 5377
5619 5614 5608 5603 5598 5593 5587 5582 5576 5570 5565 5560 5555 5549 5544 5538 5532 5527 5521 5515 5510 5504 5500 5497 5492 5484 5477 5469 5462 5456 5450 5443 5436 5428 5419 5410 5401 5393 5384 5375 5366 5358 5350
5603 5598 5593 5587 5582 5576 5570 5564 5558 5553 5548 5542 5537 5531 5526 5520 5514 5508 5502 5497 5491 5485 5480 5477 5473 5466 5458 5450 5442 5437 5429 5422 5414 5405 5397 5388 5379 5369 5360 5350 5341 5333 5325
5588 5582 5577 5572 5566 5559 5553 5547 5541 5536 5530 5525 5519 5514 5508 5502 5496 5490 5484 5478 5472 5466 5461 5456 5453 5447 5440 5431 5422 5416 5410 5402 5394 5384 5375 5366 5357 5348 5338 5328 5319 5310 5302
5572 5566 5561 5555 5549 5543 5536 5530 5524 5518 5513 5507 5502 5496 5490 5484 5478 5471 5465 5460 5453 5447 5442 5437 5433 5427 5421 5412 5404 5396 5389 5383 5375 5363 5354 5346 5336 5328 5318 5308 5298 5289 5281
5555 5550 5544 5538 5532 5526 5519 5512 5506 5501 5495 5490 5484 5478 5472 5465 5459 5453 5447 5441 5435 5429 5424 5418 5413 5408 5402 5393 5384 5376 5368 5362 5357 5347 5333 5328 5316 5308 5299 5289 5280 5270 5262
5539 5534 5528 5522 5516 5509 5502 5495 5489 5483 5479 5473 5466 5460 5454 5448 5441 5435 5428 5422 5416 5410 5405 5400 5395 5389 5382 5374 5365 5358 5349 5341 5335 5325 5313 5309 5299 5289 5280 5270 5261 5252 5243
5523 5517 5511 5505 5499 5493 5485 5479 5472 5466 5461 5456 5449 5442 5436 5430 5423 5416 5411 5405 5399 5393 5387 5381 5376 5371 5363 5355 5346 5339 5331 5324 5318 5308 5295 5288 5282 5272 5264 5254 5243 5234 5226
5506 5500 5494 5488 5483 5476 5468 5461 5454 5449 5443 5438 5431 5425 5418 5412 5405 5398 5393 5389 5383 5377 5369 5364 5358 5352 5345 5337 5328 5321 5314 5306 5301 5294 5280 5269 5263 5255 5249 5239 5228 5217 5209
5490 5484 5478 5471 5465 5459 5451 5444 5437 5431 5426 5420 5414 5407 5401 5394 5388 5381 5376 5372 5367 5361 5354 5348 5342 5336 5329 5321 5313 5305 5297 5290 5283 5278 5268 5255 5247 5238 5233 5227 5213 5203 5194